Tracking 22454 objects as of 5-Mar-2021
HD Live streaming from Space Station
objects crossing your sky now

SL-12 DEB

Track SL-12 DEB now!
10-day predictions


NORAD ID: 41562
Int'l Code: 2008-067L
Perigee: 523.9 km
Apogee: 19,155.9 km
Inclination: 64.9 °
Period: 342.4 minutes
Semi major axis: 16210 km
RCS: Unknown
Launch date: December 25, 2008
Source: Commonwealth of Independent States (former USSR) (CIS)
Launch site: TYURATAM MISSILE AND SPACE COMPLEX (TTMTR)

Note: This is SATELLITE DEBRIS
aabbcc
Your satellite tracking list
Your tracking list is empty




NASA's NSSDC Master Catalog

Two Line Element Set (TLE):
1 41562U 08067L   21063.22940884  .00000365  00000-0  10572-2 0  9999
2 41562  64.8878 143.3730 5746740 341.6264   4.1636  4.20621656 75702
Source of the keplerian elements: AFSPC